Regional Weather Roundup
Issued by NWS

Home | Current Version | Previous Version | Graphics & Text | Print | Product List | Glossary On
Versions: 1 2 3 4 5 6 7 8 9 10 11 12 13 14 15 16 17 18 19 20 21 22 23 24 25 26 27 28 29 30 31 32 33 34 35 36 37 38 39 40 41 42 43 44 45 46 47 48 49 50
000
ASUS43 KIND 202109
RWRIN

WEATHER ROUNDUP FOR INDIANA
NATIONAL WEATHER SERVICE INDIANAPOLIS IN
400 PM EST THU NOV 20 2014

NOTE: "FAIR" INDICATES FEW OR NO CLOUDS BELOW 12,000 FEET WITH NO
SIGNIFICANT WEATHER AND/OR OBSTRUCTIONS TO VISIBILITY.

* - STATION DOES NOT REPORT WEATHER SUCH AS PRECIPITATION OR FOG.

+ - STATION NOT QUALITY CONTROLLED BY THE NATIONAL WEATHER SERVICE.
    USE DATA WITH CAUTION...ESPECIALLY DEWPOINT AND RELATIVE
    HUMIDITY OBSERVATIONS.

INZ001>003-010>013-019-020-202200-
NORTHWEST INDIANA

CITY           SKY/WX    TMP DP  RH WIND       PRES   REMARKS
GARY /AIRPORT/ MOSUNNY   30   3  31 W21G36    30.09R WCI  17
KNOX *+        SUNNY     29   4  34 W18G28    30.07R WCI  17
LA PORTE +     SUNNY     30   6  36 W14G26    30.07R WCI  19
MICHIGAN CITY+ MOSUNNY   28   1  31 W10G21    30.07S WCI  19
MONTICELLO +   MOSUNNY   30  12  47 W16G23    30.10R WCI  18
RENSSELAER +   SUNNY     32  10  40 W21G28    30.10R WCI  20
VALPARAISO     SUNNY     28   2  32 W23G30    30.08R WCI  14

$$

LMZ046-743>745-202200-
SOUTHERN LAKE MICHIGAN

STATION/POSITION TIME  TEMP WIND        PRES
                       AIR  DIR/SP/G
                 (UTC) (F)  (DEG/KT/KT) (MB)
MICHIGAN CITY    2100   27  250/ 26/ 31   N/A

$$

INZ004-005-014>016-021>024-202200-
NORTH CENTRAL INDIANA

CITY           SKY/WX    TMP DP  RH WIND       PRES   REMARKS
ELKHART        PTSUNNY   27   9  46 W18G26    30.05  WCI  13
GOSHEN         MOSUNNY   26  10  50 W17       30.04R WCI  13
LOGANSPORT +   MOSUNNY   30  12  47 W20G31    30.10R WCI  18
PERU/GRISSOM   PTSUNNY   28  17  64 W17G25    30.07S WCI  16
ROCHESTER +    MOSUNNY   32  12  43 W16G23    30.07R WCI  21
SOUTH BEND     PTSUNNY   27  10  49 W16G28    30.05R WCI  15
WARSAW +       PTSUNNY   28  10  47 W16G25    30.04R WCI  17

$$

INZ006>009-017-018-025>027-202200-
NORTHEAST INDIANA

CITY           SKY/WX    TMP DP  RH WIND       PRES   REMARKS
ANGOLA *+      MOSUNNY   25  10  54 W16       30.00R WCI  12
AUBURN +       PTSUNNY   28  10  47 W18G30    30.03S WCI  16
FORT WAYNE     MOSUNNY   27  13  55 W21G29    30.05S WCI  13
HUNTINGTON +   PTSUNNY   28  14  55 W16G26    30.06S WCI  16

$$

INZ028-029-035-036-043>045-051>053-202200-
WEST CENTRAL INDIANA

CITY           SKY/WX    TMP DP  RH WIND       PRES   REMARKS
GREENCASTLE +  MOSUNNY   30  14  51 W12G18    30.15S WCI  21
LAFAYETTE      MOSUNNY   30  12  47 W14       30.12S WCI  19
TERRE HAUTE    FAIR      31  15  52 W10       30.18S WCI  22

$$

INZ030>032-037>040-046>048-054>057-064-065-202200-
CENTRAL INDIANA

CITY           SKY/WX    TMP DP  RH WIND       PRES   REMARKS
CP ATTERBURY + SUNNY     32  14  47 W8        30.16R WCI  25
COLUMBUS       MOSUNNY   32  16  51 MISG      30.17R
FRANKFORT +    MOSUNNY   29  17  59 SW16G23   30.12S WCI  18
INDIANAPOLIS   MOSUNNY   29  13  51 W22       30.14S WCI  15
-EAGLE CREEK   CLOUDY    28  13  53 W9G22     30.13S WCI  19
KOKOMO *+      MOSUNNY   28  16  59 W18G26    30.09S WCI  16
MARION +       PTSUNNY   27  15  62 W15G24    30.10R WCI  15
MT COMFORT *+  MOSUNNY   28   5  37 W18       30.13S WCI  16
SHELBYVILLE    SUNNY     31  14  49 W17       30.14R WCI  19
ZIONSVILLE +   CLOUDY    28  14  55 W16G22    30.12S WCI  17

$$

INZ033-034-041-042-049-050-058-059-202200-
EAST CENTRAL INDIANA

CITY           SKY/WX    TMP DP  RH WIND       PRES   REMARKS
MUNCIE         CLOUDY    27  14  58 W21G29    30.10R WCI  13

$$

INZ060-061-067>069-081>083-085>088-202200-
SOUTHWEST INDIANA

CITY           SKY/WX    TMP DP  RH WIND       PRES   REMARKS
EVANSVILLE     SUNNY     35  17  47 SW7       30.23S WCI  29
HUNTINGBURG *+ SUNNY     34  18  51 W12       30.22S WCI  25
WASHINGTON +   SUNNY     33  18  55 W10       30.20S WCI  25

$$

INZ062-063-066-070>080-084-089>092-202200-
SOUTH CENTRAL AND SOUTHEAST INDIANA

CITY           SKY/WX    TMP DP  RH WIND       PRES   REMARKS
BLOOMINGTON    SUNNY     30  15  53 W10       30.16S WCI  21

$$



USA.gov is the U.S. government's official web portal to all federal, state and local government web resources and services.